Location: Unspecified
(51.5147°N, 7.4673°E)
Time: 03:31:17
(UTC+01:00)

Explorer 7 - Pass Details

Date: 19 February 2026
Orbit: 430 x 541 km, 50.2° (Epoch: 12 March)

Event Time Altitude Azimuth Distance (km) Brightness Sun altitude
Rises 15:25:39 0° 224° (SW) 2,420 11.8 18.3°
Reaches altitude 10° 15:27:54 10° 213° (SSW) 1,567 11.3 18.0°
Maximum altitude 15:31:00 29° 151° (SSE) 861 8.2 17.7°
Drops below altitude 10° 15:34:12 10° 90° (E) 1,625 8.9 17.4°
Sets 15:36:35 0° 79° (E) 2,527 9.7 17.1°
